Theta_e
329 326 325 323 320 318 317 318 318 316 315 314 313 313 313 313 313 313 313 312 312 311 311 310 309 309 309 309 309 308 308 308 311 317 326 340 343 342 343 341 338 345 341
327 326 324 322 320 318 317 318 318 318 317 316 315 314 314 314 314 314 314 314 314 313 313 313 313 311 310 309 309 309 309 309 308 308 312 320 337 342 342 342 340 345 337
327 326 324 323 321 319 317 318 318 318 318 318 317 316 316 315 315 316 316 316 315 315 316 316 316 315 314 313 312 311 310 309 309 309 308 316 328 330 341 342 341 342 338
327 326 324 323 322 320 319 318 319 319 319 319 319 318 317 317 317 317 317 317 316 316 317 317 318 319 320 322 322 319 316 312 310 310 322 322 319 315 326 340 341 340 338
326 326 325 324 323 322 320 319 319 319 319 319 319 319 318 318 317 318 319 318 318 317 318 318 318 319 321 323 326 327 326 324 317 317 327 326 324 320 314 332 341 340 341
326 326 325 324 324 323 321 319 320 319 319 319 319 319 318 318 318 319 320 320 319 318 318 319 319 319 321 324 325 328 330 331 328 336 331 328 319 321 310 321 337 340 341
327 326 325 325 324 322 320 319 319 319 319 319 319 318 318 318 319 320 320 321 320 320 320 319 319 320 321 322 322 323 324 326 331 335 336 334 329 315 307 311 330 339 339
327 326 325 324 323 323 321 320 319 319 319 319 318 318 318 318 318 319 320 321 321 321 321 321 320 320 322 323 324 324 323 322 330 332 334 336 333 315 311 307 321 334 334
327 326 325 325 324 323 322 322 320 318 319 319 318 318 317 318 318 319 320 320 321 321 322 322 321 321 322 323 324 324 325 324 326 332 331 333 335 320 314 309 319 327 331
327 326 325 325 325 323 322 322 321 320 318 318 318 318 317 317 317 318 319 320 321 321 321 322 323 322 323 322 323 323 324 324 329 333 333 331 332 326 319 312 315 324 330
335 328 327 326 325 324 323 323 322 321 320 317 317 318 317 316 316 317 318 320 320 321 321 322 323 324 324 324 324 324 324 334 334 333 332 332 324 327 322 318 315 323 326
336 336 330 329 328 326 325 324 326 323 322 320 319 318 317 316 321 322 321 319 320 320 321 321 323 324 325 336 337 329 331 333 332 332 331 329 318 318 327 322 319 318 324
337 338 340 333 333 331 329 329 329 328 326 324 322 320 318 319 327 327 330 320 319 320 320 321 322 324 337 337 336 334 333 333 331 331 331 324 316 316 322 324 322 322 322
334 336 338 335 330 332 334 333 333 332 332 331 329 324 320 321 324 330 332 332 324 329 321 331 334 336 338 337 336 335 334 333 331 332 332 328 326 324 318 325 323 325 323
332 332 333 330 327 328 330 332 331 330 331 334 336 335 330 333 331 333 332 331 332 332 331 333 333 336 337 337 336 336 335 334 333 332 332 332 327 326 326 323 323 324 327
330 331 332 327 327 326 326 326 326 326 328 331 339 339 336 335 333 333 333 333 331 332 331 334 332 335 336 335 336 336 336 333 333 333 332 333 330 327 326 325 320 323 324
329 330 327 327 326 325 325 325 325 325 326 327 333 337 338 337 335 333 335 334 332 331 332 331 332 334 333 336 336 335 336 334 333 333 334 332 332 330 327 326 324 323 323
331 329 326 326 326 325 325 324 325 325 326 327 332 338 335 336 337 336 336 335 333 332 332 331 330 331 330 334 333 335 333 333 333 334 334 333 332 331 331 326 326 326 326
327 324 324 325 325 325 324 324 325 325 326 328 330 337 336 335 337 338 337 336 335 334 332 330 330 329 330 333 336 335 332 333 333 332 332 332 329 332 331 330 327 326 326
327 322 322 323 323 324 323 324 324 326 327 330 334 338 336 336 336 335 339 339 336 335 332 331 329 329 333 335 334 335 334 331 329 330 332 331 327 333 333 331 332 328 327
326 320 321 321 323 323 323 323 324 330 337 339 340 338 334 336 337 335 340 337 336 333 330 329 331 328 335 334 333 332 333 332 332 332 332 332 331 331 332 333 331 332 330
326 321 321 321 322 323 322 322 331 338 341 342 341 336 335 338 337 337 340 337 335 336 334 332 332 337 335 332 333 332 331 330 331 332 330 331 329 329 332 331 331 332 333
325 325 321 320 321 321 320 321 325 335 332 332 337 341 338 338 338 339 338 339 335 336 336 335 335 335 335 333 331 331 331 330 331 331 332 330 329 327 327 331 330 330 332
324 324 326 320 320 320 319 323 327 338 339 341 343 343 335 338 340 339 339 336 334 338 338 334 335 332 333 332 329 330 331 330 330 331 330 329 328 326 326 329 328 329 331
322 323 324 319 318 319 319 326 329 339 344 343 344 339 340 340 340 340 339 335 337 337 336 336 333 332 332 332 331 331 330 330 330 330 330 330 328 327 325 325 326 327 328
320 321 323 319 318 319 322 326 329 342 344 344 345 345 343 342 341 341 339 338 336 337 335 333 333 332 329 330 330 330 329 329 329 329 330 330 328 326 325 326 327 327 328
Wind_Speed
20 18 17 17 17 17 17 15 14 13 12 11 11 11 10 9 8 7 5 3 2 1 0 1 2 3 3 4 5 7 7 8 10 10 9 7 5 6 5 6 8 5 9
20 22 21 19 19 19 18 17 16 15 14 13 12 12 11 10 9 8 7 6 4 1 1 1 1 1 2 2 3 5 6 8 9 10 11 9 9 7 8 8 8 8 9
18 22 23 20 18 19 20 19 18 17 16 15 14 13 12 12 11 9 7 7 6 4 2 2 2 1 1 1 2 3 4 5 7 8 8 5 6 10 10 10 9 10 10
19 21 23 21 19 18 19 19 18 18 18 16 15 14 13 12 11 10 9 7 6 5 4 3 2 1 1 1 1 1 2 3 5 5 2 5 6 12 12 9 11 10 12
20 20 22 21 20 18 18 19 18 18 18 18 17 17 15 14 13 11 9 8 7 5 4 4 3 2 0 2 2 2 2 2 2 1 4 4 5 10 13 10 9 10 10
20 20 20 21 19 18 19 19 18 18 18 18 18 17 16 15 13 12 10 9 7 6 5 4 2 2 2 2 4 5 6 5 3 4 5 6 5 12 12 12 10 10 9
21 20 19 20 20 20 20 20 19 19 18 18 18 17 17 15 14 13 11 10 9 6 5 4 2 2 2 2 4 5 7 8 4 7 8 6 6 9 10 13 12 11 10
20 20 20 21 21 20 20 20 20 20 20 19 19 19 18 17 17 15 14 12 9 7 5 4 3 2 2 3 5 6 8 8 7 8 8 8 12 9 9 11 12 11 10
21 20 21 23 23 23 23 21 21 21 21 21 21 21 21 21 20 19 16 13 11 9 7 5 5 4 3 4 5 7 8 8 7 8 8 9 17 11 9 11 13 12 12
20 22 23 24 24 25 26 25 24 23 24 24 24 24 24 23 23 21 19 17 14 12 10 8 7 6 5 6 7 7 7 7 6 8 9 10 20 14 11 11 14 13 12
19 23 24 24 25 26 27 26 25 26 27 27 28 27 27 27 27 26 24 20 18 15 13 11 10 9 8 8 8 7 7 3 8 8 8 17 16 16 13 12 14 14 13
19 20 23 25 25 27 27 27 27 28 30 32 33 33 33 32 28 26 26 25 22 20 17 15 14 13 12 8 10 10 5 8 7 8 7 17 14 16 16 14 14 15 14
17 17 17 23 25 27 26 27 28 28 31 34 36 37 36 32 27 27 23 28 27 25 21 20 18 16 12 9 10 10 9 8 7 7 9 11 10 12 16 15 15 15 15
14 16 15 19 21 24 27 28 26 29 29 31 33 36 38 35 32 28 24 22 27 23 24 19 16 14 13 14 12 12 11 9 8 8 9 11 7 8 12 16 15 16 15
16 15 12 16 19 17 18 23 26 30 32 31 29 30 33 30 32 29 26 25 23 21 20 20 18 16 16 15 13 14 14 11 11 10 9 14 10 9 10 13 16 16 16
20 20 15 18 14 14 16 22 27 32 33 32 26 26 35 31 32 28 27 25 24 23 21 21 18 17 16 15 16 15 15 13 13 13 11 12 14 12 10 10 12 16 16
21 22 23 17 17 20 24 28 29 30 33 30 28 29 31 33 30 31 25 24 23 24 25 20 19 17 17 18 18 18 16 15 15 15 13 12 13 14 15 13 11 12 16
19 19 18 18 18 25 26 27 30 30 31 30 26 25 28 29 27 28 24 23 23 23 22 21 19 18 17 21 19 16 17 14 15 17 15 14 13 12 12 14 12 13 14
19 18 18 21 27 29 28 29 27 31 30 27 26 23 25 24 23 23 20 19 22 21 21 20 19 17 17 19 16 18 17 17 17 17 16 15 16 14 13 15 15 15 15
22 30 33 33 34 30 26 25 25 28 27 23 22 21 22 20 19 18 17 18 21 19 19 18 18 17 18 14 15 14 15 19 20 17 16 17 17 14 14 14 10 13 15
26 29 28 30 29 27 23 21 21 22 21 18 18 19 19 16 16 16 16 19 17 16 17 18 18 17 14 12 12 15 15 17 18 17 16 14 13 14 13 15 13 12 11
25 27 26 28 31 27 22 21 17 16 16 15 14 16 14 15 16 17 17 15 15 14 16 18 16 12 11 12 10 12 14 14 14 16 16 14 13 15 13 12 13 13 13
27 26 25 24 22 24 21 20 18 16 18 15 15 13 15 17 17 16 17 17 15 14 15 18 16 13 12 10 13 11 6 7 5 5 12 12 14 16 13 10 15 15 16
33 27 24 27 25 24 23 19 18 16 14 13 13 14 15 15 17 18 19 17 15 13 15 15 14 13 11 12 15 14 13 9 6 4 5 11 11 15 14 11 12 15 13
27 26 27 31 28 26 25 18 18 15 13 12 15 14 16 18 18 19 19 17 15 14 13 14 13 14 12 11 9 8 11 9 8 5 6 8 9 9 11 11 13 16 17
24 22 22 25 25 24 20 18 17 17 16 17 17 18 17 20 19 20 17 16 15 14 13 14 12 13 11 11 12 10 9 11 10 9 4 8 9 9 10 11 12 15 15
Wind_Direction
189 196 192 184 175 165 157 152 148 154 159 162 168 173 175 174 177 170 171 176 235 253 216 219 219 222 237 245 252 258 254 248 247 246 247 246 240 218 205 201 169 180 207
186 192 192 188 180 171 163 162 157 160 162 164 166 172 173 174 175 167 166 166 173 182 120 61 69 169 214 231 240 248 255 257 251 245 241 243 248 237 217 203 194 208 211
179 193 191 188 183 178 170 170 167 168 165 166 169 175 176 176 175 170 166 167 166 163 144 97 58 46 123 203 230 243 248 252 254 251 246 234 235 236 237 214 201 210 204
182 192 193 188 185 184 175 177 178 178 175 175 176 180 183 182 181 176 175 174 168 165 162 151 132 83 359 318 253 255 262 256 254 248 240 244 236 241 236 232 219 221 211
182 194 195 191 186 188 184 184 189 189 188 187 188 189 190 191 190 188 185 184 179 176 176 171 160 152 201 291 278 260 256 270 273 273 252 244 232 253 233 229 218 241 237
186 195 195 197 195 197 196 195 199 202 200 200 200 201 201 201 199 200 195 192 188 185 189 185 179 186 196 230 262 266 268 263 282 290 269 270 245 236 232 224 220 235 237
185 197 200 203 207 209 206 204 209 212 214 213 212 212 212 213 215 213 208 204 197 194 196 200 209 219 236 251 263 265 266 268 251 262 268 267 252 249 231 225 220 226 233
189 194 206 212 214 218 221 216 218 221 223 224 225 222 221 223 224 222 217 215 213 211 213 218 228 247 273 293 289 282 275 268 267 265 252 262 255 252 235 222 218 223 228
198 206 214 216 217 222 228 229 228 228 234 233 233 232 229 230 231 229 225 224 224 224 229 234 242 253 272 292 291 290 282 275 254 260 255 255 265 258 235 217 210 213 212
205 213 219 224 225 228 231 233 235 236 239 240 240 240 237 236 236 234 229 228 229 233 239 243 246 251 258 280 292 300 302 289 279 257 267 243 244 249 239 218 212 213 207
209 219 221 227 234 237 237 242 241 243 241 242 244 245 242 239 238 236 232 232 234 235 239 244 250 254 258 267 276 285 301 292 261 272 253 252 252 240 241 230 217 214 215
216 221 230 232 235 236 238 245 252 249 248 246 245 244 240 238 235 235 235 234 233 235 237 244 252 256 260 247 289 283 284 255 280 262 252 258 254 240 239 236 225 220 216
229 235 235 246 247 248 243 245 252 255 254 251 250 246 244 237 231 237 226 233 230 233 237 245 250 250 241 240 251 257 254 270 269 270 259 272 260 249 241 239 231 225 222
240 244 241 258 263 261 256 261 264 264 258 255 253 249 240 239 233 228 223 225 228 227 233 236 235 237 234 240 242 248 257 256 262 263 265 275 266 259 248 243 236 228 228
255 255 253 266 280 272 262 262 269 272 270 262 252 249 243 230 229 230 226 221 226 225 229 227 229 232 237 240 244 249 253 255 260 258 256 273 262 259 261 252 236 230 230
259 258 263 271 262 280 276 276 273 274 270 264 248 240 255 240 231 229 228 225 225 226 229 228 230 234 240 243 248 243 246 251 260 253 253 266 270 256 260 259 241 229 228
258 258 259 248 264 274 285 279 278 274 270 260 254 247 245 250 231 231 226 226 228 227 225 224 226 233 237 247 243 242 238 247 251 256 247 248 262 270 259 248 241 235 228
250 248 246 252 260 281 280 277 274 268 262 259 249 242 249 243 231 232 223 228 227 227 227 227 231 235 245 247 252 247 243 239 252 248 243 242 239 249 263 246 235 238 232
252 258 256 257 267 273 276 277 267 259 259 253 247 239 243 239 228 217 222 223 226 220 222 224 226 234 244 252 250 252 244 236 245 251 248 246 244 238 233 244 244 238 231
263 274 274 270 268 264 270 269 265 257 252 245 239 233 236 230 219 219 214 214 225 215 216 220 226 233 240 245 250 255 250 251 257 254 251 246 245 236 229 229 232 235 228
266 276 269 263 255 260 262 266 267 248 238 236 228 228 230 216 215 216 205 220 214 213 222 226 224 230 232 240 252 263 265 266 255 247 242 228 224 222 220 223 215 213 215
268 274 266 263 260 261 265 262 246 235 226 219 218 225 211 205 211 211 194 196 179 190 203 211 203 212 228 238 245 264 266 255 254 239 226 219 226 200 205 223 211 210 186
265 263 268 267 261 262 263 256 249 217 218 218 205 201 203 204 206 197 184 176 174 182 202 198 204 211 222 233 245 234 253 256 219 234 227 220 217 206 203 212 211 199 185
264 259 255 261 262 262 266 242 232 210 200 196 187 194 198 194 186 178 175 172 178 179 195 201 207 224 234 241 251 236 235 256 264 215 231 210 203 206 209 223 212 202 183
258 252 249 251 253 262 259 230 225 189 187 178 169 185 175 175 176 175 174 176 181 184 195 199 215 236 245 240 245 227 224 236 237 244 200 188 183 190 201 217 210 208 200
251 247 237 240 244 247 240 226 208 186 179 169 167 160 160 169 173 175 174 179 186 189 203 214 232 246 241 224 224 220 223 223 225 230 227 179 181 182 194 189 193 196 199